Flag for Tunisia Weather past 2 weeks in Tunis, Tunisia

Now
54 °F

Passing clouds.


Feels Like: 48 °F
Forecast: 46 / 55 °F
Wind: 23 mph from Southwest

Location: Tunis-Carthage

Current Time: Feb 1, 2015 at 2:13:28 AM

Latest Report: Feb 1, 2015 at 1:30 AM


Visibility: 5 mi

Pressure: 29.45 "Hg

Humidity: 63%

Dew point: 41 °F

Location of TunisLocation

Historic Weather in Tunis — Graph

°F

Tunis temperature yesterday

Maximum temperature yesterday: 72 °F (at 12:30 PM)
Minimum temperature yesterday: 52 °F (at 12:30 AM)
Average temperature yesterday: 57 °F

Past Weeks' High & Low Weather Summary

 TemperatureHumidityPressure
High72 °F (Jan 31, 12:30 PM)100% (Jan 31, 12:30 AM)30.15 "Hg (Jan 31, 12:30 AM)
Low43 °F (Jan 26, 4:30 AM)34% (Jan 20, 3:30 PM)29.18 "Hg (Jan 31, 11:30 AM)
Average52 °F72%29.83 "Hg
* Reported Midnight between Jan 16 and Jan 17 — Feb 1 12:30 AM, Tunis, Weather by CustomWeather, © 2014

Note: Actual official high and low records may vary slightly from our data, if they occured in-between our weather recording intervals... More about our weather records

Advertising

Tunis weather history for previous 24 hours

 ConditionsComfort  
Time TempWeatherWind HumidityBarometerVisibility
12:30 AM
Feb 1
54 °FPassing clouds.21 mph67%29.45 "HgN/A
12:00 AM54 °FPassing clouds.22 mph67%29.45 "Hg5 mi
11:30 PM
Jan 31
54 °FPassing clouds.15 mph63%29.42 "Hg5 mi
11:00 PM54 °FPassing clouds.17 mph67%29.42 "Hg5 mi
10:30 PM54 °FPassing clouds.22 mph67%29.39 "Hg5 mi
9:30 PM55 °FPassing clouds.21 mph63%29.39 "Hg5 mi
9:00 PM55 °FPassing clouds.14 mph67%29.36 "Hg5 mi
8:30 PM55 °FPassing clouds.18 mph63%29.36 "Hg5 mi
8:00 PM55 °FPassing clouds.15 mph63%29.36 "Hg5 mi
7:30 PM55 °FPassing clouds.15 mph67%29.36 "Hg5 mi
7:00 PM55 °FPassing clouds.12 mph67%29.33 "Hg5 mi
6:30 PM55 °FPassing clouds.10 mph72%29.33 "Hg5 mi
6:00 PM55 °FPassing clouds.18 mph72%29.30 "Hg5 mi
5:30 PM55 °FPassing clouds.22 mph72%29.27 "Hg5 mi
5:00 PM55 °FPassing clouds.9 mph77%29.27 "Hg5 mi
4:30 PM55 °FPassing clouds.10 mph77%29.24 "Hg5 mi
4:00 PM55 °FPassing clouds.12 mph82%29.21 "Hg5 mi
3:30 PM55 °FPassing clouds.17 mph82%29.24 "Hg5 mi
3:00 PM55 °FPassing clouds.18 mph82%29.21 "Hg5 mi
2:30 PM57 °FPassing clouds.18 mph82%29.21 "Hg5 mi
2:00 PM59 °FPassing clouds.16 mph82%29.18 "Hg5 mi
1:30 PM70 °FLight rain. Passing clouds.17 mph53%29.18 "Hg5 mi
1:00 PM72 °FPassing clouds.20 mph50%29.18 "HgN/A
12:30 PM72 °FPassing clouds.22 mph47%29.18 "HgN/A
12:00 PM70 °FPassing clouds.18 mph53%29.18 "HgN/A
11:30 AM68 °FPassing clouds.18 mph56%29.18 "HgN/A
11:00 AM68 °FPassing clouds.18 mph56%29.21 "HgN/A
10:30 AM66 °FPassing clouds.15 mph56%29.21 "HgN/A
10:00 AM64 °FPassing clouds.10 mph60%29.21 "HgN/A
9:30 AM61 °FPassing clouds.13 mph68%29.21 "HgN/A
9:00 AM59 °FPassing clouds.12 mph72%29.21 "HgN/A
8:30 AM57 °FPassing clouds.10 mph72%29.21 "HgN/A
8:00 AM55 °FPassing clouds.9 mph77%29.24 "HgN/A
7:30 AM54 °FPassing clouds.10 mph82%29.24 "HgN/A
7:00 AM54 °FPassing clouds.8 mph82%29.24 "Hg1 mi
6:00 AM54 °FPassing clouds.7 mph82%29.27 "Hg5 mi
5:30 AM52 °FPassing clouds.8 mph88%29.27 "Hg5 mi
5:00 AM52 °FPassing clouds.9 mph94%29.27 "Hg5 mi
4:00 AM52 °FPassing clouds.5 mph94%29.30 "Hg5 mi
3:30 AM52 °FPassing clouds.No wind94%29.33 "Hg5 mi
3:00 AM52 °FPassing clouds.No wind94%29.36 "Hg5 mi
2:30 AM52 °FPassing clouds.No wind94%29.36 "Hg5 mi
2:00 AM52 °FPassing clouds.No wind94%29.36 "Hg5 mi
Weather by CustomWeather, © 2014

See weather overviewHow to use our weather pages